Weather History for Fountain Dale, PA

Change the Weather History Date:

Monday, March 10, 2014

  Actual Average (KHGR) Record (KHGR)
Temperature  
Mean Temperature 51 °F -  
Max Temperature 64 °F 45 °F 72 °F (2006)
Min Temperature 39 °F 28 °F 19 °F (2005)
Degree Days  
Heating Degree Days 14    
Growing Degree Days 1 (Base 50)    
Moisture  
Dew Point 27 °F    
Average Humidity 40    
Maximum Humidity 49    
Minimum Humidity 30    
Precipitation  
Precipitation 0.00 in - - ()
Sea Level Pressure  
Sea Level Pressure 29.77 in    
Wind  
Wind Speed 8 mph (SW)    
Max Wind Speed 12 mph    
Max Gust Speed 22 mph    
Visibility 10 miles    
Events      
Averages and records for this station are not official NWS values.
T = Trace of Precipitation, MM = Missing Value Source: NWS Daily Summary

Daily Weather History Graph

Daily Weather History Graph

Search for Another Location

Airport:

Trip Planner

Search our weather history database for the weather conditions in past years. The results will help you decide how hot, cold, wet, or windy it might be!

Date:

Astronomy

Mar. 10, 2014 Rise Set
Actual Time 7:29 AM EDT 7:11 PM EDT
Civil Twilight 7:02 AM EDT 7:38 PM EDT
Nautical Twilight 6:31 AM EDT 8:09 PM EDT
Astronomical Twilight 5:59 AM EDT 8:41 PM EDT
Moon 1:53 PM EDT (3/10) 3:38 AM EDT (3/10)
Length of Visible Light 12h 36m
Length of Day
11h 42m
Waxing Gibbous, 70% of the Moon is Illuminated
Mar 10
Waxing Gibbous
Mar 16
Full
Mar 23
Last Quarter
Mar 30
New
Apr 7
First Quarter

Hourly Weather History & Observations

Time (EDT) Temp. Windchill Dew Point Humidity Pressure Visibility Wind Dir Wind Speed Gust Speed Precip Events Conditions
12:53 AM 39.0 °F 35.7 °F 19.0 °F 45% 29.96 in 10.0 mi Variable 4.6 mph - N/A   Clear
1:53 AM 39.9 °F 35.1 °F 19.9 °F 45% 29.93 in 10.0 mi SW 6.9 mph - N/A   Clear
2:53 AM 41.0 °F 34.7 °F 21.0 °F 45% 29.90 in 10.0 mi SSW 10.4 mph - N/A   Clear
3:53 AM 42.1 °F 36.6 °F 21.9 °F 45% 29.88 in 10.0 mi SW 9.2 mph - N/A   Clear
4:53 AM 42.1 °F 37.1 °F 21.9 °F 45% 29.87 in 10.0 mi SW 8.1 mph - N/A   Clear
5:53 AM 43.0 °F 37.7 °F 24.1 °F 47% 29.86 in 10.0 mi SW 9.2 mph 19.6 mph N/A   Clear
6:53 AM 43.0 °F 38.8 °F 24.1 °F 47% 29.87 in 10.0 mi Variable 6.9 mph - N/A   Clear
7:53 AM 43.0 °F 37.7 °F 24.1 °F 47% 29.85 in 10.0 mi WSW 9.2 mph - N/A   Partly Cloudy
8:53 AM 43.0 °F 38.8 °F 25.0 °F 49% 29.85 in 10.0 mi SW 6.9 mph - N/A   Partly Cloudy
9:53 AM 45.0 °F 41.2 °F 25.0 °F 46% 29.85 in 10.0 mi WSW 6.9 mph - N/A   Clear
10:53 AM 48.0 °F - 26.1 °F 42% 29.83 in 10.0 mi Variable 3.5 mph - N/A   Clear
11:53 AM 50.0 °F - 28.0 °F 43% 29.80 in 10.0 mi Variable 6.9 mph - N/A   Clear
12:53 PM 52.0 °F - 28.9 °F 41% 29.79 in 10.0 mi SW 9.2 mph - N/A   Clear
1:53 PM 55.0 °F - 30.0 °F 38% 29.75 in 10.0 mi Variable 6.9 mph - N/A   Partly Cloudy
2:53 PM 57.0 °F - 32.0 °F 39% 29.69 in 10.0 mi SW 9.2 mph 21.9 mph N/A   Overcast
3:53 PM 60.1 °F - 30.9 °F 33% 29.66 in 10.0 mi Variable 6.9 mph - N/A   Partly Cloudy
4:53 PM 63.0 °F - 32.0 °F 31% 29.63 in 10.0 mi WSW 9.2 mph - N/A   Clear
5:53 PM 63.0 °F - 30.9 °F 30% 29.62 in 10.0 mi West 11.5 mph 17.3 mph N/A   Clear
6:53 PM 60.1 °F - 30.9 °F 33% 29.62 in 10.0 mi WSW 5.8 mph - N/A   Partly Cloudy
7:53 PM 60.1 °F - 30.0 °F 32% 29.65 in 10.0 mi SW 6.9 mph - N/A   Clear
8:53 PM 59.0 °F - 28.9 °F 32% 29.64 in 10.0 mi WSW 10.4 mph 17.3 mph N/A   Clear
9:53 PM 59.0 °F - 28.9 °F 32% 29.63 in 10.0 mi WSW 10.4 mph 17.3 mph N/A   Clear
10:53 PM 59.0 °F - 28.9 °F 32% 29.62 in 10.0 mi SW 10.4 mph 17.3 mph N/A   Clear
11:53 PM 57.9 °F - 30.0 °F 35% 29.61 in 10.0 mi SW 10.4 mph 21.9 mph N/A   Clear